Reno, NV (89501)

5:03 AM PDT on July 29, 2017 (GMT -0700)
UNR Campus, LMR Roof | | Change Station

Elev 4570 ft 39.54 °N, 119.81 °W | Updated 41 seconds ago

Partly Cloudy
Partly Cloudy
68.5 °F
Feels Like 68.5 °F
N
0.4
Wind Variable Wind from North
Gusts 0.0 mph

Today
High -- | Low -- °F
--% Chance of Precip.
Yesterday
High -- | Low -- °F
Precip. -- in
Pressure 29.93 in
Visibility 10.0 miles
Clouds Few 18000 ft
Dew Point 44 °F
Humidity 40%
Rainfall 0.00 in
Snow Depth Not available.
5:56 AM 8:14 PM
Waxing Crescent, 39% visible
METAR KRNO 291155Z 00000KT 10SM FEW180 21/06 A3013 RMK AO2 SLP135 T02110061 10272 20211 51005
Pressure 29.93 in
Visibility 10.0 miles
Clouds Few 18000 ft
Dew Point 44 °F
Humidity 40%
Rainfall 0.00 in
Snow Depth Not available.
5:56 AM 8:14 PM
Waxing Crescent, 39% visible
METAR KRNO 291155Z 00000KT 10SM FEW180 21/06 A3013 RMK AO2 SLP135 T02110061 10272 20211 51005

Get Severe Weather Alerts

Thanks for signing up!

Be on the lookout for a verification email in your inbox.

You'll start receiving the daily forecast at 6 AM.

×

10-Day Weather Forecast

Almanac

Astronomy

Jul. 29, 2017 Rise Set
Actual Time
Civil Twilight
Nautical Twilight
Astronomical Twilight
Moon
Length of Visible Light
Length of Day
Tomorrow will be .
, % of the Moon is Illuminated

Today's Extremes

State Highs State Lows

Community

WunderPhotos

Category 6

Welcome to Category 6. This is the collective home for Weather Underground's featured writeups by Dr. Jeff Masters (right), Bob Henson (left), Chris Burt, and other regular contributors.

Nearby

Air Quality

  Air Quality AQ Index Pollutant
Not available.

Snow Depth

Station Depth Elevation

Earthquake Activity

City Distance Mag. Time & Date
Minimum magnitude displayed is 2.5.

Coastal Water Temperatures

Place Temperature

Stations

Nearby Weather Stations

Station Location Temp. Windchill Dew Point Humidity Wind Precip. Elev Updated Type
                   

Watches & Warnings

There are currently no watches in effect.